Weather History for Appleton, MN

Change the Weather History Date:

Wednesday, May 1, 2013

  Actual Average Record
Temperature  
Mean Temperature 38 °F -  
Max Temperature 44 °F 63 °F 118 °F (1997)
Min Temperature 33 °F 38 °F 24 °F (1997)
Degree Days  
Heating Degree Days 26    
Moisture  
Dew Point 25 °F    
Average Humidity 57    
Maximum Humidity 75    
Minimum Humidity 46    
Precipitation  
Precipitation 0.00 in - - ()
Sea Level Pressure  
Sea Level Pressure 30.36 in    
Wind  
Wind Speed 16 mph (NNW)    
Max Wind Speed 24 mph    
Max Gust Speed 29 mph    
Visibility 10 miles    
Events      
Averages and records for this station are not official NWS values.
T = Trace of Precipitation, MM = Missing Value Source: NWS Daily Summary

Daily Weather History Graph

Daily Weather History Graph

Search for Another Location

Airport:

Trip Planner

Search our weather history database for the weather conditions in past years. The results will help you decide how hot, cold, wet, or windy it might be!

Date:

Astronomy

May. 01, 2013 Rise Set
Actual Time 6:12 AM CDT 8:30 PM CDT
Civil Twilight 5:39 AM CDT 9:03 PM CDT
Nautical Twilight 4:59 AM CDT 9:43 PM CDT
Astronomical Twilight 4:14 AM CDT 10:29 PM CDT
Moon 1:41 AM CDT (5/1) 11:52 AM CDT (5/1)
Length of Visible Light 15h 23m
Length of Day
14h 18m
Waning Gibbous, 59% of the Moon is Illuminated
May 1
Waning Gibbous
May 2
Last Quarter
May 9
New
May 17
First Quarter
May 24
Full

Hourly Weather History & Observations

Time (CDT) Temp. Windchill Dew Point Humidity Pressure Visibility Wind Dir Wind Speed Gust Speed Precip Events Conditions
12:13 AM 44.6 °F 37.4 °F 30.2 °F 57% 30.05 in 10.0 mi North 16.1 mph - N/A   Scattered Clouds
12:53 AM 42.8 °F 34.3 °F 28.4 °F 57% 30.10 in 10.0 mi NNW 19.6 mph 24.2 mph N/A   Scattered Clouds
1:14 AM 42.8 °F 36.6 °F 28.4 °F 57% 30.12 in 10.0 mi NNW 11.5 mph - N/A   Scattered Clouds
1:34 AM 41.0 °F 33.5 °F 28.4 °F 61% 30.13 in 10.0 mi NNW 13.8 mph 17.3 mph N/A   Scattered Clouds
1:53 AM 39.2 °F 30.5 °F 28.4 °F 65% 30.12 in 10.0 mi North 16.1 mph - N/A   Clear
2:14 AM 39.2 °F 30.8 °F 26.6 °F 61% 30.15 in 10.0 mi NNW 15.0 mph - N/A   Clear
2:33 AM 39.2 °F 31.6 °F 28.4 °F 65% 30.14 in 10.0 mi NNW 12.7 mph - N/A   Clear
2:54 AM 39.2 °F 30.8 °F 28.4 °F 65% 30.14 in 10.0 mi NNW 15.0 mph - N/A   Clear
3:13 AM 39.2 °F 31.6 °F 28.4 °F 65% 30.13 in 10.0 mi NNW 12.7 mph - N/A   Clear
3:33 AM 37.4 °F 27.5 °F 26.6 °F 65% 30.13 in 10.0 mi North 18.4 mph 24.2 mph N/A   Clear
3:54 AM 37.4 °F 27.5 °F 24.8 °F 60% 30.15 in 10.0 mi NNW 18.4 mph 24.2 mph N/A   Clear
4:14 AM 37.4 °F 27.5 °F 24.8 °F 60% 30.16 in 10.0 mi NNW 18.4 mph - N/A   Clear
4:33 AM 37.4 °F 27.8 °F 24.8 °F 60% 30.18 in 10.0 mi NNW 17.3 mph - N/A   Clear
4:53 AM 35.6 °F 25.9 °F 24.8 °F 65% 30.18 in 10.0 mi NNW 16.1 mph - N/A   Clear
5:13 AM 35.6 °F 27.1 °F 24.8 °F 65% 30.20 in 10.0 mi NNW 12.7 mph - N/A   Clear
5:33 AM 35.6 °F 26.2 °F 24.8 °F 65% 30.22 in 10.0 mi NNW 15.0 mph 18.4 mph N/A   Scattered Clouds
5:53 AM 35.6 °F 26.6 °F 24.8 °F 65% 30.23 in 10.0 mi NNW 13.8 mph 20.7 mph N/A   Scattered Clouds
6:13 AM 35.6 °F 26.6 °F 24.8 °F 65% 30.25 in 10.0 mi NNW 13.8 mph 19.6 mph N/A   Clear
6:33 AM 35.6 °F 26.6 °F 24.8 °F 65% 30.28 in 10.0 mi NNW 13.8 mph - N/A   Clear
6:55 AM 35.6 °F 28.0 °F 24.8 °F 65% 30.31 in 10.0 mi NNW 10.4 mph - N/A   Clear
7:13 AM 35.6 °F 27.1 °F 24.8 °F 65% 30.31 in 10.0 mi NNW 12.7 mph - N/A   Clear
7:33 AM 35.6 °F 25.2 °F 21.2 °F 56% 30.32 in 10.0 mi NW 18.4 mph - N/A   Clear
7:53 AM 35.6 °F 26.2 °F 21.2 °F 56% 30.32 in 10.0 mi NNW 15.0 mph - N/A   Clear
8:13 AM 35.6 °F 26.6 °F 21.2 °F 56% 30.34 in 10.0 mi NW 13.8 mph 19.6 mph N/A   Clear
8:33 AM 35.6 °F 26.2 °F 19.4 °F 52% 30.33 in 10.0 mi NNW 15.0 mph - N/A   Clear
8:53 AM 35.6 °F 25.5 °F 21.2 °F 56% 30.32 in 10.0 mi NNW 17.3 mph - N/A   Clear
9:13 AM 35.6 °F 25.9 °F 21.2 °F 56% 30.32 in 10.0 mi NNW 16.1 mph 20.7 mph N/A   Clear
9:33 AM 35.6 °F 25.9 °F 21.2 °F 56% 30.33 in 10.0 mi NNW 16.1 mph - N/A   Clear
9:54 AM 35.6 °F 25.9 °F 21.2 °F 56% 30.35 in 10.0 mi NNW 16.1 mph - N/A   Clear
10:14 AM 35.6 °F 25.5 °F 21.2 °F 56% 30.37 in 10.0 mi NW 17.3 mph 23.0 mph N/A   Clear
10:33 AM 37.4 °F 27.2 °F 21.2 °F 52% 30.37 in 10.0 mi NW 19.6 mph 24.2 mph N/A   Clear
10:53 AM 37.4 °F 27.8 °F 21.2 °F 52% 30.37 in 10.0 mi NNW 17.3 mph 23.0 mph N/A   Clear
11:13 AM 39.2 °F 30.5 °F 23.0 °F 52% 30.38 in 10.0 mi NNW 16.1 mph 24.2 mph N/A   Clear
11:33 AM 37.4 °F 27.2 °F 21.2 °F 52% 30.38 in 10.0 mi NNW 19.6 mph 24.2 mph N/A   Scattered Clouds
11:53 AM 39.2 °F 30.2 °F 21.2 °F 49% 30.39 in 10.0 mi North 17.3 mph 23.0 mph N/A   Clear
12:14 PM 39.2 °F 30.5 °F 21.2 °F 49% 30.40 in 10.0 mi NNW 16.1 mph 23.0 mph N/A   Clear
12:33 PM 39.2 °F 30.2 °F 21.2 °F 49% 30.41 in 10.0 mi NNW 17.3 mph 23.0 mph N/A   Clear
12:53 PM 39.2 °F 30.8 °F 23.0 °F 52% 30.41 in 10.0 mi North 15.0 mph 26.5 mph N/A   Clear
1:13 PM 41.0 °F 31.4 °F 23.0 °F 49% 30.41 in 10.0 mi North 21.9 mph 26.5 mph N/A   Clear
1:33 PM 42.8 °F 33.5 °F 24.8 °F 49% 30.41 in 10.0 mi NNW 23.0 mph 27.6 mph N/A   Scattered Clouds
1:53 PM 42.8 °F 34.3 °F 24.8 °F 49% 30.41 in 10.0 mi NNW 19.6 mph 27.6 mph N/A   Clear
2:13 PM 41.0 °F 31.1 °F 24.8 °F 53% 30.41 in 10.0 mi North 23.0 mph 27.6 mph N/A   Clear
2:33 PM 42.8 °F 34.3 °F 24.8 °F 49% 30.42 in 10.0 mi NNW 19.6 mph 27.6 mph N/A   Clear
2:53 PM 42.8 °F 34.0 °F 24.8 °F 49% 30.42 in 10.0 mi NNW 20.7 mph 28.8 mph N/A   Clear
3:13 PM 42.8 °F 33.8 °F 24.8 °F 49% 30.43 in 10.0 mi NNW 21.9 mph 28.8 mph N/A   Clear
3:33 PM 42.8 °F 34.0 °F 24.8 °F 49% 30.43 in 10.0 mi North 20.7 mph 26.5 mph N/A   Scattered Clouds
3:53 PM 42.8 °F 34.0 °F 24.8 °F 49% 30.44 in 10.0 mi NNW 20.7 mph 28.8 mph N/A   Scattered Clouds
4:13 PM 42.8 °F 33.3 °F 24.8 °F 49% 30.44 in 10.0 mi North 24.2 mph 28.8 mph N/A   Scattered Clouds
4:34 PM 44.6 °F 35.9 °F 24.8 °F 46% 30.44 in 10.0 mi North 23.0 mph 26.5 mph N/A   Scattered Clouds
4:54 PM 44.6 °F 36.4 °F 24.8 °F 46% 30.44 in 10.0 mi North 20.7 mph 26.5 mph N/A   Scattered Clouds
5:13 PM 44.6 °F 36.1 °F 24.8 °F 46% 30.45 in 10.0 mi North 21.9 mph 28.8 mph N/A   Clear
5:33 PM 44.6 °F 35.9 °F 26.6 °F 49% 30.46 in 10.0 mi North 23.0 mph - N/A   Clear
5:53 PM 44.6 °F 36.6 °F 26.6 °F 49% 30.47 in 10.0 mi North 19.6 mph - N/A   Clear
6:13 PM 44.6 °F 36.6 °F 26.6 °F 49% 30.47 in 10.0 mi North 19.6 mph 24.2 mph N/A   Clear
6:34 PM 44.6 °F 36.4 °F 26.6 °F 49% 30.48 in 10.0 mi North 20.7 mph 26.5 mph N/A   Clear
6:53 PM 44.6 °F 36.4 °F 26.6 °F 49% 30.49 in 10.0 mi North 20.7 mph 25.3 mph N/A   Clear
7:13 PM 44.6 °F 36.4 °F 26.6 °F 49% 30.50 in 10.0 mi North 20.7 mph 25.3 mph N/A   Clear
7:34 PM 42.8 °F 34.8 °F 26.6 °F 53% 30.51 in 10.0 mi North 17.3 mph 23.0 mph N/A   Clear
7:53 PM 42.8 °F 34.0 °F 26.6 °F 53% 30.51 in 10.0 mi North 20.7 mph - N/A   Clear
8:13 PM 42.8 °F 34.8 °F 26.6 °F 53% 30.52 in 10.0 mi North 17.3 mph 23.0 mph N/A   Clear
8:33 PM 41.0 °F 33.1 °F 26.6 °F 57% 30.52 in 10.0 mi North 15.0 mph - N/A   Clear
8:54 PM 39.2 °F 30.5 °F 26.6 °F 61% 30.52 in 10.0 mi North 16.1 mph 23.0 mph N/A   Clear
9:13 PM 39.2 °F 30.8 °F 26.6 °F 61% 30.53 in 10.0 mi North 15.0 mph - N/A   Clear
9:33 PM 39.2 °F 32.5 °F 26.6 °F 61% 30.54 in 10.0 mi North 10.4 mph - N/A   Clear
9:53 PM 39.2 °F 31.6 °F 26.6 °F 61% 30.54 in 10.0 mi North 12.7 mph - N/A   Clear
10:33 PM 35.6 °F 28.0 °F 26.6 °F 70% 30.56 in 10.0 mi North 10.4 mph - N/A   Clear
10:53 PM 35.6 °F 27.5 °F 26.6 °F 70% 30.55 in 10.0 mi North 11.5 mph - N/A   Clear
11:13 PM 35.6 °F 27.5 °F 26.6 °F 70% 30.56 in 10.0 mi North 11.5 mph - N/A   Clear
11:33 PM 33.8 °F 25.8 °F 26.6 °F 75% 30.56 in 10.0 mi North 10.4 mph - N/A   Clear
11:53 PM 33.8 °F 25.8 °F 26.6 °F 75% 30.56 in 10.0 mi NNE 10.4 mph - N/A   Clear